Radiosonde details



Informationen :

Serial : D26002537
Type : Graw DFM
Frequency : 403.210MHz
Launchsite : Spokane, Wa.
Nearest town : Chewelah, US (25.8km)

Altitude (Max) : 33775m at 2026-09-04 19:14:30
Speed (Max) : 106km/h at altitude 10746m

Average speed : 44km/h
Average ascent rate : 5m/s
Average descent rate : -11m/s
Ascent rate (Max) : 10.4m/s
Descent rate (Max): -32.1m/s

First frame :
WB7NNF at 2026-09-04 17:45:17 at altitude 5706m (OG: 4993m)
Last frame :
WB7NNF at 2026-09-04 19:52:48 at altitude 9542m (OG: 8338m)

Flighttime : 2h7m31s
Ascent time : 1h29m13s
Descent time : 38m18s
Uptime : -
Killtimer : -

Distance (Straight line distance): 75km

Distance (Route):


Frames : 346


Measurement :

Temperature : -40.2°C
Humidity : 0%
Pressure : 0hPa


Vertical profile (SkewT) :


Elevation profile :



Receiving stations :


Receiver Frames First received Last received
WB7NNF 346 2026-09-04 17:45:17 2026-09-04 19:52:48

Share per receiver :



All frames :


Receiver Date Latitude Longitude Direction Speed Altitude Climb Temperature Humidity Pressure Voltage Killtimer Uptime BKT XDATA
WB7NNF2026-09-04 19:52:4848.38931-117.4111720°91km/h9542m-6.9m/s-40.2°C0%0hPa0V00:00:0000:00:0000:00:00
WB7NNF2026-09-04 19:52:1848.38276-117.4146723°89km/h9721m-5.8m/s-41.2°C0%0hPa0V00:00:0000:00:0000:00:00
WB7NNF2026-09-04 19:51:0948.36918-117.4206515°84km/h10147m-6.2m/s-41.1°C0%0hPa0V00:00:0000:00:0000:00:00
WB7NNF2026-09-04 19:50:4748.36445-117.4221715°91km/h10289m-6.2m/s-42.0°C0%0hPa0V00:00:0000:00:0000:00:00
WB7NNF2026-09-04 19:50:2648.35957-117.4241218°97km/h10420m-6.0m/s-42.1°C0%0hPa0V00:00:0000:00:0000:00:00
WB7NNF2026-09-04 19:50:0648.35492-117.4267926°88km/h10550m-6.2m/s-41.8°C0%0hPa0V00:00:0000:00:0000:00:00
WB7NNF2026-09-04 19:49:4548.35125-117.4295628°75km/h10669m-6.1m/s-42.2°C0%0hPa0V00:00:0000:00:0000:00:00
WB7NNF2026-09-04 19:49:0448.34464-117.4351729°66km/h10899m-5.5m/s-41.3°C0%0hPa0V00:00:0000:00:0000:00:00
WB7NNF2026-09-04 19:48:4448.34154-117.4370419°62km/h11015m-5.7m/s-41.3°C0%0hPa0V00:00:0000:00:0000:00:00
WB7NNF2026-09-04 19:48:2248.33812-117.4384215°69km/h11130m-5.2m/s-41.8°C0%0hPa0V00:00:0000:00:0000:00:00
WB7NNF2026-09-04 19:47:4248.33058-117.4410211°77km/h11349m-5.5m/s-43.2°C0%0hPa0V00:00:0000:00:0000:00:00
WB7NNF2026-09-04 19:47:2148.32666-117.4423316°80km/h11457m-5.5m/s-43.7°C0%0hPa0V00:00:0000:00:0000:00:00
WB7NNF2026-09-04 19:47:0148.32279-117.4445024°73km/h11575m-5.7m/s-42.4°C0%0hPa0V00:00:0000:00:0000:00:00
WB7NNF2026-09-04 19:46:4048.31948-117.4460916°68km/h11688m-5.5m/s-42.7°C0%0hPa0V00:00:0000:00:0000:00:00
WB7NNF2026-09-04 19:46:2048.31597-117.4478324°68km/h11806m-5.4m/s-42.8°C0%0hPa0V00:00:0000:00:0000:00:00
WB7NNF2026-09-04 19:45:5948.31292-117.4500228°66km/h11914m-5.2m/s-43.2°C0%0hPa0V00:00:0000:00:0000:00:00
WB7NNF2026-09-04 19:45:3948.30997-117.4519722°57km/h12027m-5.3m/s-43.4°C0%0hPa0V00:00:0000:00:0000:00:00
WB7NNF2026-09-04 19:45:1848.30703-117.4534416°66km/h12133m-5.1m/s-44.0°C0%0hPa0V00:00:0000:00:0000:00:00
WB7NNF2026-09-04 19:44:5848.30360-117.4547216°66km/h12241m-5.2m/s-44.6°C0%0hPa0V00:00:0000:00:0000:00:00
WB7NNF2026-09-04 19:44:3748.30035-117.4561420°66km/h12347m-5.4m/s-44.9°C0%0hPa0V00:00:0000:00:0000:00:00
WB7NNF2026-09-04 19:44:1748.29725-117.4578218°60km/h12460m-5.5m/s-44.7°C0%0hPa0V00:00:0000:00:0000:00:00
WB7NNF2026-09-04 19:43:5648.29419-117.4593419°69km/h12569m-5.5m/s-44.2°C0%0hPa0V00:00:0000:00:0000:00:00
WB7NNF2026-09-04 19:43:3648.29080-117.4610418°66km/h12685m-5.5m/s-44.1°C0%0hPa0V00:00:0000:00:0000:00:00
WB7NNF2026-09-04 19:43:1548.28753-117.4625719°62km/h12801m-5.6m/s-45.1°C0%0hPa0V00:00:0000:00:0000:00:00
WB7NNF2026-09-04 19:42:5448.28452-117.4639017°60km/h12914m-5.7m/s-45.0°C0%0hPa0V00:00:0000:00:0000:00:00
WB7NNF2026-09-04 19:42:3448.28154-117.4652820°55km/h13037m-5.6m/s-45.6°C0%0hPa0V00:00:0000:00:0000:00:00
WB7NNF2026-09-04 19:42:1348.27914-117.4668427°49km/h13155m-5.9m/s-46.2°C0%0hPa0V00:00:0000:00:0000:00:00
WB7NNF2026-09-04 19:41:5348.27671-117.4683822°51km/h13280m-5.9m/s-46.3°C0%0hPa0V00:00:0000:00:0000:00:00
WB7NNF2026-09-04 19:41:3248.27433-117.4696017°47km/h13402m-6.1m/s-46.8°C0%0hPa0V00:00:0000:00:0000:00:00
WB7NNF2026-09-04 19:41:1248.27190-117.4707217°49km/h13535m-6.2m/s-47.2°C0%0hPa0V00:00:0000:00:0000:00:00
WB7NNF2026-09-04 19:40:5148.26938-117.4715411°49km/h13664m-6.7m/s-47.6°C0%0hPa0V00:00:0000:00:0000:00:00
WB7NNF2026-09-04 19:40:3148.26645-117.4722812°60km/h13802m-6.5m/s-48.0°C0%0hPa0V00:00:0000:00:0000:00:00
WB7NNF2026-09-04 19:40:1048.26358-117.4732314°55km/h13931m-6.4m/s-48.5°C0%0hPa0V00:00:0000:00:0000:00:00
WB7NNF2026-09-04 19:39:5048.26063-117.4747421°62km/h14066m-6.3m/s-48.4°C0%0hPa0V00:00:0000:00:0000:00:00
WB7NNF2026-09-04 19:39:2948.25762-117.4760317°64km/h14193m-6.4m/s-48.2°C0%0hPa0V00:00:0000:00:0000:00:00
WB7NNF2026-09-04 19:39:0948.25447-117.4774216°60km/h14327m-6.3m/s-48.2°C0%0hPa0V00:00:0000:00:0000:00:00
WB7NNF2026-09-04 19:38:4848.25166-117.4784813°55km/h14452m-6.2m/s-48.4°C0%0hPa0V00:00:0000:00:0000:00:00
WB7NNF2026-09-04 19:38:2848.24888-117.4791853km/h14584m-6.1m/s-49.0°C0%0hPa0V00:00:0000:00:0000:00:00
WB7NNF2026-09-04 19:38:0748.24596-117.4796710°58km/h14720m-6.3m/s-49.7°C0%0hPa0V00:00:0000:00:0000:00:00
WB7NNF2026-09-04 19:37:4648.24335-117.4805214°49km/h14850m-6.6m/s-50.2°C0%0hPa0V00:00:0000:00:0000:00:00
WB7NNF2026-09-04 19:37:2648.24063-117.4811655km/h14992m-6.7m/s-50.1°C0%0hPa0V00:00:0000:00:0000:00:00
WB7NNF2026-09-04 19:37:0548.23760-117.48092355°64km/h15126m-7.0m/s-49.9°C0%0hPa0V00:00:0000:00:0000:00:00
WB7NNF2026-09-04 19:36:4548.23412-117.48028357°68km/h15271m-6.9m/s-49.9°C0%0hPa0V00:00:0000:00:0000:00:00
WB7NNF2026-09-04 19:36:2448.23084-117.4803260km/h15412m-7.2m/s-49.4°C0%0hPa0V00:00:0000:00:0000:00:00
WB7NNF2026-09-04 19:36:0448.22793-117.4813124°57km/h15562m-7.1m/s-49.2°C0%0hPa0V00:00:0000:00:0000:00:00
WB7NNF2026-09-04 19:35:4348.22564-117.4831631°44km/h15707m-7.2m/s-48.5°C0%0hPa0V00:00:0000:00:0000:00:00
WB7NNF2026-09-04 19:35:2348.22391-117.4842719°33km/h15856m-7.1m/s-48.9°C0%0hPa0V00:00:0000:00:0000:00:00
WB7NNF2026-09-04 19:35:0248.22220-117.4847711°38km/h16003m-7.4m/s-49.7°C0%0hPa0V00:00:0000:00:0000:00:00
WB7NNF2026-09-04 19:34:4248.22001-117.4852442km/h16165m-7.9m/s-50.1°C0%0hPa0V00:00:0000:00:0000:00:00
WB7NNF2026-09-04 19:34:2148.21741-117.4852458km/h16323m-8.0m/s-50.5°C0%0hPa0V00:00:0000:00:0000:00:00
WB7NNF2026-09-04 19:34:0148.21410-117.4857511°68km/h16489m-7.8m/s-51.2°C0%0hPa0V00:00:0000:00:0000:00:00
WB7NNF2026-09-04 19:33:4048.21089-117.4868811°58km/h16651m-8.2m/s-50.6°C0%0hPa0V00:00:0000:00:0000:00:00
WB7NNF2026-09-04 19:33:2048.20811-117.4877924°53km/h16824m-8.0m/s-50.4°C0%0hPa0V00:00:0000:00:0000:00:00
WB7NNF2026-09-04 19:32:5948.20562-117.4892718°49km/h16994m-8.3m/s-49.8°C0%0hPa0V00:00:0000:00:0000:00:00
WB7NNF2026-09-04 19:32:3948.20337-117.4905624°46km/h17172m-8.7m/s-50.7°C0%0hPa0V00:00:0000:00:0000:00:00
WB7NNF2026-09-04 19:32:1848.20135-117.49120355°37km/h17356m-8.6m/s-49.8°C0%0hPa0V00:00:0000:00:0000:00:00
WB7NNF2026-09-04 19:31:5748.19939-117.49070350°42km/h17530m-8.6m/s-50.7°C0%0hPa0V00:00:0000:00:0000:00:00
WB7NNF2026-09-04 19:31:3748.19711-117.49011351°51km/h17713m-8.6m/s-50.0°C0%0hPa0V00:00:0000:00:0000:00:00
WB7NNF2026-09-04 19:31:1648.19437-117.4897758km/h17890m-8.9m/s-50.7°C0%0hPa0V00:00:0000:00:0000:00:00
WB7NNF2026-09-04 19:30:5648.19138-117.4902414°51km/h18078m-9.1m/s-49.8°C0%0hPa0V00:00:0000:00:0000:00:00
WB7NNF2026-09-04 19:30:3248.18948-117.4915842°24km/h18288m-9.4m/s-49.6°C0%0hPa0V00:00:0000:00:0000:00:00
WB7NNF2026-09-04 19:30:1148.18873-117.4924525°11km/h18494m-9.6m/s-50.3°C0%0hPa0V00:00:0000:00:0000:00:00
WB7NNF2026-09-04 19:29:4948.18797-117.49198330°18km/h18698m-9.9m/s-51.1°C0%0hPa0V00:00:0000:00:0000:00:00
WB7NNF2026-09-04 19:29:2748.18677-117.49087339°31km/h18914m-9.8m/s-52.4°C0%0hPa0V00:00:0000:00:0000:00:00
WB7NNF2026-09-04 19:29:0448.18538-117.4904112°16km/h19155m-10.1m/s-52.1°C0%0hPa0V00:00:0000:00:0000:00:00
WB7NNF2026-09-04 19:27:5048.18517-117.48858345°16km/h19915m-10.5m/s-53.5°C0%0hPa0V00:00:0000:00:0000:00:00
WB7NNF2026-09-04 19:27:2948.18400-117.4886922°24km/h20129m-10.2m/s-54.2°C0%0hPa0V00:00:0000:00:0000:00:00
WB7NNF2026-09-04 19:26:5348.18291-117.49097114°22km/h20524m-11.2m/s-53.2°C0%0hPa0V00:00:0000:00:0000:00:00
WB7NNF2026-09-04 19:26:1448.18371-117.49020263°22km/h20976m-10.6m/s-52.0°C0%0hPa0V00:00:0000:00:0000:00:00
WB7NNF2026-09-04 19:25:5348.18362-117.48849290°27km/h21211m-11.1m/s-52.8°C0%0hPa0V00:00:0000:00:0000:00:00
WB7NNF2026-09-04 19:24:3948.17965-117.48448353°16km/h22141m-13.4m/s-53.3°C0%0hPa0V00:00:0000:00:0000:00:00
WB7NNF2026-09-04 19:24:1848.17940-117.48454232°9km/h22412m-11.8m/s-53.6°C0%0hPa0V00:00:0000:00:0000:00:00
WB7NNF2026-09-04 19:23:5648.17952-117.48333254°20km/h22703m-13.2m/s-54.0°C0%0hPa0V00:00:0000:00:0000:00:00
WB7NNF2026-09-04 19:23:3548.17880-117.48224303°16km/h22986m-14.1m/s-53.5°C0%0hPa0V00:00:0000:00:0000:00:00
WB7NNF2026-09-04 19:23:0748.17792-117.48103315°24km/h23356m-13.1m/s-52.9°C0%0hPa0V00:00:0000:00:0000:00:00
WB7NNF2026-09-04 19:22:4748.17665-117.47961359°33km/h23652m-15.2m/s-54.0°C0%0hPa0V00:00:0000:00:0000:00:00
WB7NNF2026-09-04 19:22:2648.17579-117.47895336°9km/h23945m-15.7m/s-52.6°C0%0hPa0V00:00:0000:00:0000:00:00
WB7NNF2026-09-04 19:22:0648.17563-117.47745276°20km/h24261m-15.2m/s-52.7°C0%0hPa0V00:00:0000:00:0000:00:00
WB7NNF2026-09-04 19:21:4348.17568-117.47677314°9km/h24599m-15.9m/s-52.3°C0%0hPa0V00:00:0000:00:0000:00:00
WB7NNF2026-09-04 19:21:2348.17534-117.47606344°7km/h24933m-15.9m/s-51.2°C0%0hPa0V00:00:0000:00:0000:00:00
WB7NNF2026-09-04 19:20:4248.17496-117.47668197°4km/h25614m-16.7m/s-49.4°C0%0hPa0V00:00:0000:00:0000:00:00
WB7NNF2026-09-04 19:20:2148.17525-117.47610258°11km/h25955m-16.9m/s-49.8°C0%0hPa0V00:00:0000:00:0000:00:00
WB7NNF2026-09-04 19:20:0148.17499-117.47411293°40km/h26320m-17.5m/s-49.7°C0%0hPa0V00:00:0000:00:0000:00:00
WB7NNF2026-09-04 19:19:4048.17433-117.4731411°9km/h26676m-17.8m/s-49.3°C0%0hPa0V00:00:0000:00:0000:00:00
WB7NNF2026-09-04 19:19:2048.17432-117.47341201°11km/h27064m-18.6m/s-47.1°C0%0hPa0V00:00:0000:00:0000:00:00
WB7NNF2026-09-04 19:18:5948.17470-117.47186278°29km/h27448m-18.4m/s-48.0°C0%0hPa0V00:00:0000:00:0000:00:00
WB7NNF2026-09-04 19:18:3948.17471-117.47083300°13km/h27861m-19.5m/s-48.3°C0%0hPa0V00:00:0000:00:0000:00:00
WB7NNF2026-09-04 19:18:1848.17428-117.46975304°16km/h28292m-20.1m/s-47.0°C0%0hPa0V00:00:0000:00:0000:00:00
WB7NNF2026-09-04 19:17:5748.17434-117.46981153°18km/h28718m-21.8m/s-46.9°C0%0hPa0V00:00:0000:00:0000:00:00
WB7NNF2026-09-04 19:17:3748.17503-117.47051174°13km/h29180m-22.7m/s-45.7°C0%0hPa0V00:00:0000:00:0000:00:00
WB7NNF2026-09-04 19:17:1648.17579-117.4708158°5km/h29632m-22.7m/s-45.6°C0%0hPa0V00:00:0000:00:0000:00:00
WB7NNF2026-09-04 19:16:5648.17587-117.47107146°13km/h30122m-25.2m/s-45.2°C0%0hPa0V00:00:0000:00:0000:00:00
WB7NNF2026-09-04 19:16:3548.17568-117.4709164°4km/h30644m-24.3m/s-44.3°C0%0hPa0V00:00:0000:00:0000:00:00
WB7NNF2026-09-04 19:16:1348.17532-117.47023300°20km/h31208m-27.2m/s-42.9°C0%0hPa0V00:00:0000:00:0000:00:00
WB7NNF2026-09-04 19:15:5248.17462-117.46943348°22km/h31819m-27.0m/s-41.9°C0%0hPa0V00:00:0000:00:0000:00:00
WB7NNF2026-09-04 19:15:3248.17387-117.4689211°26km/h32419m-27.4m/s-41.1°C0%0hPa0V00:00:0000:00:0000:00:00
WB7NNF2026-09-04 19:15:1048.17224-117.46943301°20km/h33018m-28.7m/s-38.3°C0%0hPa0V00:00:0000:00:0000:00:00
WB7NNF2026-09-04 19:14:5048.17148-117.4708876°11km/h33541m-32.1m/s-39.3°C0%0hPa0V00:00:0000:00:0000:00:00
WB7NNF2026-09-04 19:14:3048.17152-117.47293152°40km/h33775m4.7m/s-38.8°C0%0hPa0V00:00:0000:00:0000:00:00
WB7NNF2026-09-04 19:14:0948.17056-117.4744049°77km/h33632m4.4m/s-39.5°C0%0hPa0V00:00:0000:00:0000:00:00
WB7NNF2026-09-04 19:13:4748.17019-117.47565284°40km/h33491m8.8m/s-39.7°C0%0hPa0V00:00:0000:00:0000:00:00
WB7NNF2026-09-04 19:13:2748.16927-117.4765991°68km/h33352m5.8m/s-39.6°C0%0hPa0V00:00:0000:00:0000:00:00
WB7NNF2026-09-04 19:13:0648.16932-117.47793264°38km/h33218m3.5m/s-39.1°C0%0hPa0V00:00:0000:00:0000:00:00
WB7NNF2026-09-04 19:12:4648.16860-117.4790576°64km/h33082m5.2m/s-38.6°C0%0hPa0V00:00:0000:00:0000:00:00
WB7NNF2026-09-04 19:12:2548.16774-117.48027185°7km/h32960m9.3m/s-39.0°C0%0hPa0V00:00:0000:00:0000:00:00
WB7NNF2026-09-04 19:12:0548.16594-117.4808078km/h32830m7.9m/s-40.1°C0%0hPa0V00:00:0000:00:0000:00:00
WB7NNF2026-09-04 19:11:4448.16406-117.4813466°53km/h32704m4.2m/s-40.7°C0%0hPa0V00:00:0000:00:0000:00:00
WB7NNF2026-09-04 19:11:2448.16286-117.48132306°53km/h32579m7.8m/s-41.5°C0%0hPa0V00:00:0000:00:0000:00:00
WB7NNF2026-09-04 19:11:0348.16163-117.48103353°31km/h32463m5.9m/s-41.4°C0%0hPa0V00:00:0000:00:0000:00:00
WB7NNF2026-09-04 19:10:4348.16069-117.4812414°16km/h32333m0.7m/s-41.8°C0%0hPa0V00:00:0000:00:0000:00:00
WB7NNF2026-09-04 19:10:2248.15980-117.48045303°53km/h32206m10.4m/s-41.8°C0%0hPa0V00:00:0000:00:0000:00:00
WB7NNF2026-09-04 19:09:4148.15819-117.47778221°11km/h31949m2.7m/s-41.8°C0%0hPa0V00:00:0000:00:0000:00:00
WB7NNF2026-09-04 19:09:2048.15793-117.47694300°46km/h31822m6.0m/s-41.4°C0%0hPa0V00:00:0000:00:0000:00:00
WB7NNF2026-09-04 19:09:0048.15729-117.4768477°27km/h31690m8.3m/s-41.8°C0%0hPa0V00:00:0000:00:0000:00:00
WB7NNF2026-09-04 19:08:3948.15652-117.47702318°9km/h31569m7.2m/s-42.2°C0%0hPa0V00:00:0000:00:0000:00:00
WB7NNF2026-09-04 19:08:1948.15547-117.47623324°27km/h31435m6.2m/s-42.7°C0%0hPa0V00:00:0000:00:0000:00:00
WB7NNF2026-09-04 19:07:5848.15484-117.4759723°20km/h31308m1.5m/s-43.2°C0%0hPa0V00:00:0000:00:0000:00:00
WB7NNF2026-09-04 19:07:3848.15423-117.47510254°33km/h31180m3.0m/s-43.8°C0%0hPa0V00:00:0000:00:0000:00:00
WB7NNF2026-09-04 19:07:1748.15403-117.47458104°31km/h31053m5.2m/s-44.0°C0%0hPa0V00:00:0000:00:0000:00:00
WB7NNF2026-09-04 19:06:5748.15368-117.47406288°31km/h30919m6.7m/s-44.8°C0%0hPa0V00:00:0000:00:0000:00:00
WB7NNF2026-09-04 19:06:3648.15401-117.47415145°26km/h30788m0.9m/s-45.2°C0%0hPa0V00:00:0000:00:0000:00:00
WB7NNF2026-09-04 19:06:1448.15409-117.47389300°44km/h30655m4.5m/s-45.1°C0%0hPa0V00:00:0000:00:0000:00:00
WB7NNF2026-09-04 19:05:5448.15381-117.47308105°4km/h30531m10.1m/s-45.7°C0%0hPa0V00:00:0000:00:0000:00:00
WB7NNF2026-09-04 19:05:3348.15377-117.47277317°16km/h30385m4.9m/s-45.7°C0%0hPa0V00:00:0000:00:0000:00:00
WB7NNF2026-09-04 19:05:1248.15412-117.47302332°13km/h30250m6.8m/s-45.6°C0%0hPa0V00:00:0000:00:0000:00:00
WB7NNF2026-09-04 19:04:5248.15464-117.47337124°47km/h30111m5.4m/s-45.4°C0%0hPa0V00:00:0000:00:0000:00:00
WB7NNF2026-09-04 19:04:3148.15515-117.47351268°15km/h29983m8.9m/s-45.5°C0%0hPa0V00:00:0000:00:0000:00:00
WB7NNF2026-09-04 19:04:1148.15524-117.47351139°31km/h29842m4.7m/s-45.6°C0%0hPa0V00:00:0000:00:0000:00:00
WB7NNF2026-09-04 19:03:5048.15517-117.47319101°2km/h29715m6.2m/s-45.2°C0%0hPa0V00:00:0000:00:0000:00:00
WB7NNF2026-09-04 19:03:3048.15545-117.4732422°18km/h29579m4.4m/s-45.3°C0%0hPa0V00:00:0000:00:0000:00:00
WB7NNF2026-09-04 19:03:0948.15638-117.47321113°38km/h29447m5.0m/s-45.1°C0%0hPa0V00:00:0000:00:0000:00:00
WB7NNF2026-09-04 19:02:4848.15725-117.47360266°29km/h29325m4.5m/s-45.0°C0%0hPa0V00:00:0000:00:0000:00:00
WB7NNF2026-09-04 19:02:2848.15790-117.47398114°44km/h29201m3.9m/s-45.6°C0%0hPa0V00:00:0000:00:0000:00:00
WB7NNF2026-09-04 19:02:0748.15821-117.47424291°20km/h29083m5.3m/s-46.4°C0%0hPa0V00:00:0000:00:0000:00:00
WB7NNF2026-09-04 19:01:4748.15884-117.47446127°13km/h28960m8.3m/s-46.8°C0%0hPa0V00:00:0000:00:0000:00:00
WB7NNF2026-09-04 19:01:2648.15928-117.47510148°29km/h28837m9.3m/s-46.9°C0%0hPa0V00:00:0000:00:0000:00:00
WB7NNF2026-09-04 19:01:0648.15987-117.4755755°20km/h28705m5.5m/s-46.9°C0%0hPa0V00:00:0000:00:0000:00:00
WB7NNF2026-09-04 19:00:4448.15998-117.47591197°26km/h28573m6.8m/s-46.9°C0%0hPa0V00:00:0000:00:0000:00:00
WB7NNF2026-09-04 19:00:2348.15986-117.47574239°9km/h28434m5.1m/s-47.1°C0%0hPa0V00:00:0000:00:0000:00:00
WB7NNF2026-09-04 19:00:0348.15937-117.47436278°22km/h28302m8.8m/s-47.2°C0%0hPa0V00:00:0000:00:0000:00:00
WB7NNF2026-09-04 18:59:4248.15878-117.47287323°16km/h28170m6.5m/s-47.8°C0%0hPa0V00:00:0000:00:0000:00:00
WB7NNF2026-09-04 18:59:2148.15862-117.47185342°29km/h28040m5.6m/s-48.4°C0%0hPa0V00:00:0000:00:0000:00:00
WB7NNF2026-09-04 18:59:0148.15853-117.47079295°16km/h27909m7.9m/s-48.1°C0%0hPa0V00:00:0000:00:0000:00:00
WB7NNF2026-09-04 18:58:4048.15852-117.47021200°16km/h27791m6.2m/s-47.4°C0%0hPa0V00:00:0000:00:0000:00:00
WB7NNF2026-09-04 18:58:2048.15861-117.47015358°31km/h27669m4.4m/s-47.7°C0%0hPa0V00:00:0000:00:0000:00:00
WB7NNF2026-09-04 18:57:5948.15880-117.46995313°18km/h27550m1.2m/s-47.7°C0%0hPa0V00:00:0000:00:0000:00:00
WB7NNF2026-09-04 18:57:3748.15899-117.4684325°13km/h27423m4.1m/s-48.0°C0%0hPa0V00:00:0000:00:0000:00:00
WB7NNF2026-09-04 18:57:1648.15942-117.46721216°44km/h27310m5.7m/s-47.6°C0%0hPa0V00:00:0000:00:0000:00:00
WB7NNF2026-09-04 18:56:5648.16010-117.46654205°26km/h27192m1.8m/s-47.6°C0%0hPa0V00:00:0000:00:0000:00:00
WB7NNF2026-09-04 18:56:3548.16049-117.46712172°20km/h27076m7.9m/s-48.8°C0%0hPa0V00:00:0000:00:0000:00:00
WB7NNF2026-09-04 18:56:1548.16079-117.4684984°55km/h26954m4.6m/s-49.5°C0%0hPa0V00:00:0000:00:0000:00:00
WB7NNF2026-09-04 18:55:5448.16065-117.46930115°16km/h26832m8.3m/s-49.5°C0%0hPa0V00:00:0000:00:0000:00:00
WB7NNF2026-09-04 18:55:3448.16042-117.4698015km/h26702m5.8m/s-49.0°C0%0hPa0V00:00:0000:00:0000:00:00
WB7NNF2026-09-04 18:55:1348.15988-117.46982336°31km/h26570m8.3m/s-49.0°C0%0hPa0V00:00:0000:00:0000:00:00
WB7NNF2026-09-04 18:54:5248.15920-117.4691654°7km/h26447m8.3m/s-49.5°C0%0hPa0V00:00:0000:00:0000:00:00
WB7NNF2026-09-04 18:54:3248.15866-117.46716284°38km/h26320m6.6m/s-49.8°C0%0hPa0V00:00:0000:00:0000:00:00
WB7NNF2026-09-04 18:54:1148.15842-117.46441266°47km/h26201m4.5m/s-49.6°C0%0hPa0V00:00:0000:00:0000:00:00
WB7NNF2026-09-04 18:53:5148.15839-117.46252223°15km/h26073m7.5m/s-49.9°C0%0hPa0V00:00:0000:00:0000:00:00
WB7NNF2026-09-04 18:53:3048.15849-117.46140254°27km/h25959m6.2m/s-50.1°C0%0hPa0V00:00:0000:00:0000:00:00
WB7NNF2026-09-04 18:53:1048.15884-117.46016234°26km/h25836m4.8m/s-50.3°C0%0hPa0V00:00:0000:00:0000:00:00
WB7NNF2026-09-04 18:52:4948.15914-117.45920243°26km/h25719m4.8m/s-49.8°C0%0hPa0V00:00:0000:00:0000:00:00
WB7NNF2026-09-04 18:52:2948.15932-117.45863168°13km/h25603m3.1m/s-49.8°C0%0hPa0V00:00:0000:00:0000:00:00
WB7NNF2026-09-04 18:52:0848.15899-117.45891347°16km/h25496m6.0m/s-50.5°C0%0hPa0V00:00:0000:00:0000:00:00
WB7NNF2026-09-04 18:51:4848.15877-117.45899205°13km/h25379m6.4m/s-50.4°C0%0hPa0V00:00:0000:00:0000:00:00
WB7NNF2026-09-04 18:51:2748.15848-117.45872304°16km/h25265m4.3m/s-50.9°C0%0hPa0V00:00:0000:00:0000:00:00
WB7NNF2026-09-04 18:50:4648.15742-117.4581215km/h25029m7.5m/s-51.3°C0%0hPa0V00:00:0000:00:0000:00:00
WB7NNF2026-09-04 18:50:2648.15678-117.45740329°15km/h24909m6.6m/s-51.4°C0%0hPa0V00:00:0000:00:0000:00:00
WB7NNF2026-09-04 18:50:0548.15642-117.45604295°20km/h24786m6.5m/s-50.9°C0%0hPa0V00:00:0000:00:0000:00:00
WB7NNF2026-09-04 18:49:4448.15603-117.45425261°18km/h24669m7.1m/s-51.0°C0%0hPa0V00:00:0000:00:0000:00:00
WB7NNF2026-09-04 18:49:2448.15538-117.45277253°31km/h24548m4.6m/s-51.4°C0%0hPa0V00:00:0000:00:0000:00:00
WB7NNF2026-09-04 18:49:0348.15512-117.45180266°24km/h24434m6.1m/s-51.8°C0%0hPa0V00:00:0000:00:0000:00:00
WB7NNF2026-09-04 18:48:4348.15503-117.45125263°20km/h24315m5.8m/s-52.1°C0%0hPa0V00:00:0000:00:0000:00:00
WB7NNF2026-09-04 18:48:2248.15499-117.44994285°22km/h24201m4.3m/s-51.9°C0%0hPa0V00:00:0000:00:0000:00:00
WB7NNF2026-09-04 18:48:0248.15504-117.44807271°35km/h24085m5.9m/s-52.2°C0%0hPa0V00:00:0000:00:0000:00:00
WB7NNF2026-09-04 18:47:4148.15461-117.44635331°15km/h23975m8.0m/s-52.3°C0%0hPa0V00:00:0000:00:0000:00:00
WB7NNF2026-09-04 18:47:1948.15393-117.4456236°15km/h23858m6.1m/s-52.3°C0%0hPa0V00:00:0000:00:0000:00:00
WB7NNF2026-09-04 18:46:5848.15323-117.44484325°24km/h23750m4.9m/s-53.3°C0%0hPa0V00:00:0000:00:0000:00:00
WB7NNF2026-09-04 18:46:3848.15203-117.44376335°24km/h23634m5.3m/s-53.4°C0%0hPa0V00:00:0000:00:0000:00:00
WB7NNF2026-09-04 18:46:1748.15067-117.44279330°16km/h23522m6.1m/s-52.8°C0%0hPa0V00:00:0000:00:0000:00:00
WB7NNF2026-09-04 18:45:5748.14964-117.44112281°33km/h23405m5.4m/s-52.7°C0%0hPa0V00:00:0000:00:0000:00:00
WB7NNF2026-09-04 18:45:3648.14919-117.43992273°13km/h23289m5.6m/s-53.3°C0%0hPa0V00:00:0000:00:0000:00:00
WB7NNF2026-09-04 18:45:1648.14864-117.43906341°33km/h23168m3.8m/s-53.6°C0%0hPa0V00:00:0000:00:0000:00:00
WB7NNF2026-09-04 18:44:5548.14808-117.43806323°24km/h23052m5.6m/s-53.5°C0%0hPa0V00:00:0000:00:0000:00:00
WB7NNF2026-09-04 18:44:3548.14757-117.43710294°15km/h22927m6.5m/s-52.9°C0%0hPa0V00:00:0000:00:0000:00:00
WB7NNF2026-09-04 18:44:1448.14705-117.43603319°5km/h22813m4.5m/s-52.8°C0%0hPa0V00:00:0000:00:0000:00:00
WB7NNF2026-09-04 18:43:5448.14674-117.43464205°15km/h22696m5.1m/s-53.6°C0%0hPa0V00:00:0000:00:0000:00:00
WB7NNF2026-09-04 18:43:1248.14740-117.43270240°7km/h22477m5.1m/s-53.3°C0%0hPa0V00:00:0000:00:0000:00:00
WB7NNF2026-09-04 18:42:5248.14779-117.43191207°5km/h22368m6.8m/s-52.6°C0%0hPa0V00:00:0000:00:0000:00:00
WB7NNF2026-09-04 18:42:3148.14796-117.43166170°4km/h22264m4.9m/s-52.2°C0%0hPa0V00:00:0000:00:0000:00:00
WB7NNF2026-09-04 18:42:1148.14782-117.43166216°7km/h22157m6.1m/s-52.4°C0%0hPa0V00:00:0000:00:0000:00:00
WB7NNF2026-09-04 18:41:5048.14708-117.43159315°13km/h22054m5.6m/s-52.7°C0%0hPa0V00:00:0000:00:0000:00:00
WB7NNF2026-09-04 18:41:3048.14583-117.4313027km/h21941m5.0m/s-52.3°C0%0hPa0V00:00:0000:00:0000:00:00
WB7NNF2026-09-04 18:41:0948.14471-117.43069320°31km/h21835m6.5m/s-52.1°C0%0hPa0V00:00:0000:00:0000:00:00
WB7NNF2026-09-04 18:40:4948.14390-117.42934311°15km/h21721m4.1m/s-52.7°C0%0hPa0V00:00:0000:00:0000:00:00
WB7NNF2026-09-04 18:40:2848.14301-117.42773313°38km/h21614m6.2m/s-52.4°C0%0hPa0V00:00:0000:00:0000:00:00
WB7NNF2026-09-04 18:40:0848.14126-117.42582336°38km/h21499m4.3m/s-52.6°C0%0hPa0V00:00:0000:00:0000:00:00
WB7NNF2026-09-04 18:39:4748.13981-117.42380272°35km/h21388m5.1m/s-52.9°C0%0hPa0V00:00:0000:00:0000:00:00
WB7NNF2026-09-04 18:39:2748.13892-117.42154286°33km/h21267m6.3m/s-52.7°C0%0hPa0V00:00:0000:00:0000:00:00
WB7NNF2026-09-04 18:39:0648.13862-117.41967239°18km/h21156m6.6m/s-52.4°C0%0hPa0V00:00:0000:00:0000:00:00
WB7NNF2026-09-04 18:38:4648.13874-117.41802257°22km/h21044m5.8m/s-52.1°C0%0hPa0V00:00:0000:00:0000:00:00
WB7NNF2026-09-04 18:38:2548.13914-117.41675238°20km/h20931m5.4m/s-52.1°C0%0hPa0V00:00:0000:00:0000:00:00
WB7NNF2026-09-04 18:38:0448.13958-117.41564217°18km/h20829m3.5m/s-53.2°C0%0hPa0V00:00:0000:00:0000:00:00
WB7NNF2026-09-04 18:37:4448.14001-117.41491143°22km/h20723m3.8m/s-52.8°C0%0hPa0V00:00:0000:00:0000:00:00
WB7NNF2026-09-04 18:37:2348.14064-117.41522145°18km/h20624m4.3m/s-53.1°C0%0hPa0V00:00:0000:00:0000:00:00
WB7NNF2026-09-04 18:37:0348.14116-117.41621173°9km/h20522m3.4m/s-52.8°C0%0hPa0V00:00:0000:00:0000:00:00
WB7NNF2026-09-04 18:36:4248.14109-117.4174079°15km/h20420m4.4m/s-53.6°C0%0hPa0V00:00:0000:00:0000:00:00
WB7NNF2026-09-04 18:36:2248.14021-117.4187936°47km/h20315m5.2m/s-54.1°C0%0hPa0V00:00:0000:00:0000:00:00
WB7NNF2026-09-04 18:36:0148.13899-117.4197043°35km/h20209m4.0m/s-54.0°C0%0hPa0V00:00:0000:00:0000:00:00
WB7NNF2026-09-04 18:35:4148.13752-117.4204411°20km/h20099m6.5m/s-54.2°C0%0hPa0V00:00:0000:00:0000:00:00
WB7NNF2026-09-04 18:35:2048.13625-117.4205916km/h19998m5.4m/s-53.9°C0%0hPa0V00:00:0000:00:0000:00:00
WB7NNF2026-09-04 18:35:0048.13540-117.4203120°7km/h19888m6.7m/s-53.5°C0%0hPa0V00:00:0000:00:0000:00:00
WB7NNF2026-09-04 18:34:3948.13507-117.41982324°15km/h19783m5.6m/s-53.2°C0%0hPa0V00:00:0000:00:0000:00:00
WB7NNF2026-09-04 18:34:1948.13503-117.41936183°4km/h19677m4.2m/s-52.7°C0%0hPa0V00:00:0000:00:0000:00:00
WB7NNF2026-09-04 18:33:5848.13531-117.41920116°16km/h19572m5.7m/s-52.5°C0%0hPa0V00:00:0000:00:0000:00:00
WB7NNF2026-09-04 18:33:3848.13578-117.41984157°4km/h19466m3.4m/s-51.8°C0%0hPa0V00:00:0000:00:0000:00:00
WB7NNF2026-09-04 18:33:1748.13621-117.42046127°15km/h19363m5.2m/s-51.8°C0%0hPa0V00:00:0000:00:0000:00:00
WB7NNF2026-09-04 18:32:5748.13595-117.421067km/h19259m5.5m/s-51.7°C0%0hPa0V00:00:0000:00:0000:00:00
WB7NNF2026-09-04 18:32:3648.13522-117.42131352°33km/h19159m6.3m/s-51.6°C0%0hPa0V00:00:0000:00:0000:00:00
WB7NNF2026-09-04 18:32:1648.13404-117.42106340°26km/h19047m4.3m/s-50.8°C0%0hPa0V00:00:0000:00:0000:00:00
WB7NNF2026-09-04 18:31:5548.13264-117.42035336°29km/h18941m6.1m/s-52.1°C0%0hPa0V00:00:0000:00:0000:00:00
WB7NNF2026-09-04 18:31:3448.13104-117.41925330°44km/h18843m5.9m/s-51.7°C0%0hPa0V00:00:0000:00:0000:00:00
WB7NNF2026-09-04 18:31:1448.12965-117.41776332°31km/h18738m6.0m/s-51.0°C0%0hPa0V00:00:0000:00:0000:00:00
WB7NNF2026-09-04 18:30:5248.12847-117.41677344°22km/h18634m5.5m/s-50.6°C0%0hPa0V00:00:0000:00:0000:00:00
WB7NNF2026-09-04 18:30:3148.12719-117.41634339°24km/h18528m4.1m/s-50.3°C0%0hPa0V00:00:0000:00:0000:00:00
WB7NNF2026-09-04 18:30:1148.12585-117.4163220km/h18420m4.3m/s-50.4°C0%0hPa0V00:00:0000:00:0000:00:00
WB7NNF2026-09-04 18:29:5048.12414-117.4166453km/h18317m5.7m/s-50.3°C0%0hPa0V00:00:0000:00:0000:00:00
WB7NNF2026-09-04 18:29:2948.12200-117.4171555km/h18212m5.7m/s-50.0°C0%0hPa0V00:00:0000:00:0000:00:00
WB7NNF2026-09-04 18:29:0748.11952-117.4178349km/h18105m5.7m/s-50.2°C0%0hPa0V00:00:0000:00:0000:00:00
WB7NNF2026-09-04 18:28:4748.11652-117.4185262km/h17997m6.2m/s-51.5°C0%0hPa0V00:00:0000:00:0000:00:00
WB7NNF2026-09-04 18:28:2648.11341-117.41875356°58km/h17890m5.8m/s-50.9°C0%0hPa0V00:00:0000:00:0000:00:00
WB7NNF2026-09-04 18:28:0548.11071-117.41857349°57km/h17784m5.1m/s-51.2°C0%0hPa0V00:00:0000:00:0000:00:00
WB7NNF2026-09-04 18:27:4548.10788-117.41789346°49km/h17676m5.7m/s-51.1°C0%0hPa0V00:00:0000:00:0000:00:00
WB7NNF2026-09-04 18:27:2448.10563-117.41691349°47km/h17572m4.6m/s-50.8°C0%0hPa0V00:00:0000:00:0000:00:00
WB7NNF2026-09-04 18:27:0448.10345-117.41586334°31km/h17466m4.7m/s-50.2°C0%0hPa0V00:00:0000:00:0000:00:00
WB7NNF2026-09-04 18:26:4248.10164-117.41543347°31km/h17358m6.1m/s-49.6°C0%0hPa0V00:00:0000:00:0000:00:00
WB7NNF2026-09-04 18:26:2148.09997-117.4156212°27km/h17252m6.3m/s-49.8°C0%0hPa0V00:00:0000:00:0000:00:00
WB7NNF2026-09-04 18:26:0148.09818-117.4168537°46km/h17148m4.2m/s-50.1°C0%0hPa0V00:00:0000:00:0000:00:00
WB7NNF2026-09-04 18:25:1948.09432-117.4194219°57km/h16932m4.7m/s-50.3°C0%0hPa0V00:00:0000:00:0000:00:00
WB7NNF2026-09-04 18:24:5948.09131-117.4204262km/h16827m6.1m/s-50.1°C0%0hPa0V00:00:0000:00:0000:00:00
WB7NNF2026-09-04 18:24:3848.08771-117.4211064km/h16717m5.8m/s-51.1°C0%0hPa0V00:00:0000:00:0000:00:00
WB7NNF2026-09-04 18:24:1648.08427-117.4219317°78km/h16609m4.1m/s-52.1°C0%0hPa0V00:00:0000:00:0000:00:00
WB7NNF2026-09-04 18:23:5548.08099-117.4226858km/h16509m5.7m/s-51.5°C0%0hPa0V00:00:0000:00:0000:00:00
WB7NNF2026-09-04 18:23:3548.07781-117.4230511°71km/h16408m4.0m/s-51.0°C0%0hPa0V00:00:0000:00:0000:00:00
WB7NNF2026-09-04 18:23:1448.07509-117.42308360°44km/h16313m5.9m/s-50.5°C0%0hPa0V00:00:0000:00:0000:00:00
WB7NNF2026-09-04 18:22:3348.07053-117.42284356°29km/h16113m4.9m/s-49.7°C0%0hPa0V00:00:0000:00:0000:00:00
WB7NNF2026-09-04 18:22:1348.06864-117.4230829km/h16013m5.1m/s-49.4°C0%0hPa0V00:00:0000:00:0000:00:00
WB7NNF2026-09-04 18:21:5248.06645-117.4237153km/h15917m3.4m/s-49.0°C0%0hPa0V00:00:0000:00:0000:00:00
WB7NNF2026-09-04 18:21:3248.06431-117.4245237km/h15823m5.0m/s-49.0°C0%0hPa0V00:00:0000:00:0000:00:00
WB7NNF2026-09-04 18:21:1148.06236-117.4252514°40km/h15719m5.0m/s-48.8°C0%0hPa0V00:00:0000:00:0000:00:00
WB7NNF2026-09-04 18:20:4948.06017-117.4265323°44km/h15614m3.9m/s-48.4°C0%0hPa0V00:00:0000:00:0000:00:00
WB7NNF2026-09-04 18:20:2948.05747-117.4279725°62km/h15512m5.6m/s-49.2°C0%0hPa0V00:00:0000:00:0000:00:00
WB7NNF2026-09-04 18:20:0848.05458-117.4290715°62km/h15413m3.6m/s-49.2°C0%0hPa0V00:00:0000:00:0000:00:00
WB7NNF2026-09-04 18:19:4748.05168-117.42924353°57km/h15323m5.2m/s-49.5°C0%0hPa0V00:00:0000:00:0000:00:00
WB7NNF2026-09-04 18:19:2748.04863-117.4292064km/h15234m4.0m/s-49.9°C0%0hPa0V00:00:0000:00:0000:00:00
WB7NNF2026-09-04 18:19:0648.04598-117.4294053km/h15136m4.4m/s-49.8°C0%0hPa0V00:00:0000:00:0000:00:00
WB7NNF2026-09-04 18:18:2348.04111-117.4290537km/h14925m3.9m/s0°C0%0hPa0V00:00:0000:00:0000:00:00
WB7NNF2026-09-04 18:17:5748.03814-117.4303917°47km/h14793m5.3m/s-49.1°C0%0hPa0V00:00:0000:00:0000:00:00
WB7NNF2026-09-04 18:17:3648.03581-117.4318327°53km/h14690m4.8m/s-48.8°C0%0hPa0V00:00:0000:00:0000:00:00
WB7NNF2026-09-04 18:17:1648.03316-117.4333610°46km/h14583m5.4m/s-48.3°C0%0hPa0V00:00:0000:00:0000:00:00
WB7NNF2026-09-04 18:16:5548.03035-117.4342351km/h14480m5.1m/s-47.9°C0%0hPa0V00:00:0000:00:0000:00:00
WB7NNF2026-09-04 18:16:3148.02711-117.4350112°51km/h14367m5.4m/s-47.1°C0%0hPa0V00:00:0000:00:0000:00:00
WB7NNF2026-09-04 18:16:1048.02462-117.4356849km/h14263m4.5m/s-47.3°C0%0hPa0V00:00:0000:00:0000:00:00
WB7NNF2026-09-04 18:15:5048.02164-117.4363910°60km/h14161m4.4m/s-47.2°C0%0hPa0V00:00:0000:00:0000:00:00
WB7NNF2026-09-04 18:15:2948.01833-117.4370660km/h14064m3.7m/s-47.5°C0%0hPa0V00:00:0000:00:0000:00:00
WB7NNF2026-09-04 18:15:0748.01482-117.4382914°55km/h13959m4.8m/s-47.0°C0%0hPa0V00:00:0000:00:0000:00:00
WB7NNF2026-09-04 18:14:4648.01167-117.4400422°60km/h13867m3.9m/s-46.8°C0%0hPa0V00:00:0000:00:0000:00:00
WB7NNF2026-09-04 18:14:2048.00760-117.4421922°60km/h13760m4.2m/s-46.8°C0%0hPa0V00:00:0000:00:0000:00:00
WB7NNF2026-09-04 18:13:5348.00339-117.4436711°51km/h13639m3.4m/s-46.7°C0%0hPa0V00:00:0000:00:0000:00:00
WB7NNF2026-09-04 18:13:3248.00037-117.4443447km/h13540m4.3m/s-46.3°C0%0hPa0V00:00:0000:00:0000:00:00
WB7NNF2026-09-04 18:13:1147.99786-117.44503361°60km/h13453m4.7m/s-45.9°C0%0hPa0V00:00:0000:00:0000:00:00
WB7NNF2026-09-04 18:12:5147.99493-117.4462320°49km/h13360m4.4m/s-45.7°C0%0hPa0V00:00:0000:00:0000:00:00
WB7NNF2026-09-04 18:12:3047.99201-117.4476520°55km/h13268m5.4m/s-45.7°C0%0hPa0V00:00:0000:00:0000:00:00
WB7NNF2026-09-04 18:12:1047.98910-117.4493322°71km/h13172m5.3m/s-45.5°C0%0hPa0V00:00:0000:00:0000:00:00
WB7NNF2026-09-04 18:11:4947.98593-117.4513930°66km/h13075m4.6m/s-45.2°C0%0hPa0V00:00:0000:00:0000:00:00
WB7NNF2026-09-04 18:11:0847.97919-117.4556823°60km/h12876m4.2m/s-44.7°C0%0hPa0V00:00:0000:00:0000:00:00
WB7NNF2026-09-04 18:10:4847.97552-117.4575110°78km/h12767m4.4m/s-44.5°C0%0hPa0V00:00:0000:00:0000:00:00
WB7NNF2026-09-04 18:10:2747.97186-117.4589714°68km/h12662m4.9m/s-44.2°C0%0hPa0V00:00:0000:00:0000:00:00
WB7NNF2026-09-04 18:10:0647.96841-117.4607118°73km/h12563m3.8m/s-44.1°C0%0hPa0V00:00:0000:00:0000:00:00
WB7NNF2026-09-04 18:09:4647.96455-117.4627828°80km/h12462m3.2m/s-43.7°C0%0hPa0V00:00:0000:00:0000:00:00
WB7NNF2026-09-04 18:09:2547.96110-117.4646516°80km/h12371m5.3m/s-44.0°C0%0hPa0V00:00:0000:00:0000:00:00
WB7NNF2026-09-04 18:09:0547.95721-117.4662925°77km/h12277m4.7m/s-44.1°C0%0hPa0V00:00:0000:00:0000:00:00
WB7NNF2026-09-04 18:08:4447.95375-117.4678122°66km/h12191m4.8m/s-43.5°C0%0hPa0V00:00:0000:00:0000:00:00
WB7NNF2026-09-04 18:08:2447.95004-117.4692815°69km/h12104m4.2m/s-43.0°C0%0hPa0V00:00:0000:00:0000:00:00
WB7NNF2026-09-04 18:08:0347.94651-117.4711820°71km/h12020m3.2m/s-43.0°C0%0hPa0V00:00:0000:00:0000:00:00
WB7NNF2026-09-04 18:07:4347.94250-117.4731018°86km/h11931m4.2m/s-43.0°C0%0hPa0V00:00:0000:00:0000:00:00
WB7NNF2026-09-04 18:07:2247.93851-117.4748222°86km/h11846m4.3m/s-42.9°C0%0hPa0V00:00:0000:00:0000:00:00
WB7NNF2026-09-04 18:06:4147.93027-117.4789123°75km/h11661m3.6m/s-43.1°C0%0hPa0V00:00:0000:00:0000:00:00
WB7NNF2026-09-04 18:06:2147.92607-117.4809621°77km/h11566m4.3m/s-43.3°C0%0hPa0V00:00:0000:00:0000:00:00
WB7NNF2026-09-04 18:06:0047.92180-117.4829220°89km/h11470m4.1m/s-43.6°C0%0hPa0V00:00:0000:00:0000:00:00
WB7NNF2026-09-04 18:05:4047.91722-117.4848086km/h11357m4.7m/s-43.3°C0%0hPa0V00:00:0000:00:0000:00:00
WB7NNF2026-09-04 18:05:1947.91308-117.4857914°77km/h11249m4.5m/s-43.8°C0%0hPa0V00:00:0000:00:0000:00:00
WB7NNF2026-09-04 18:04:5747.90884-117.4874519°77km/h11136m4.7m/s-43.5°C0%0hPa0V00:00:0000:00:0000:00:00
WB7NNF2026-09-04 18:04:3647.90475-117.4898523°95km/h11036m4.0m/s-44.0°C0%0hPa0V00:00:0000:00:0000:00:00
WB7NNF2026-09-04 18:04:1647.90012-117.4927028°93km/h10937m3.8m/s-43.8°C0%0hPa0V00:00:0000:00:0000:00:00
WB7NNF2026-09-04 18:03:5547.89536-117.4952124°89km/h10846m4.0m/s-43.5°C0%0hPa0V00:00:0000:00:0000:00:00
WB7NNF2026-09-04 18:03:3447.89083-117.4971417°104km/h10746m3.5m/s-42.9°C0%0hPa0V00:00:0000:00:0000:00:00
WB7NNF2026-09-04 18:03:1447.88676-117.4988715°78km/h10626m4.0m/s-42.2°C0%0hPa0V00:00:0000:00:0000:00:00
WB7NNF2026-09-04 18:02:5247.88290-117.5003415°77km/h10532m4.8m/s-41.8°C0%0hPa0V00:00:0000:00:0000:00:00
WB7NNF2026-09-04 18:02:3147.87903-117.5019915°77km/h10432m3.6m/s-41.7°C0%0hPa0V00:00:0000:00:0000:00:00
WB7NNF2026-09-04 18:02:1047.87536-117.5037115°77km/h10344m3.9m/s-41.5°C0%0hPa0V00:00:0000:00:0000:00:00
WB7NNF2026-09-04 18:01:2947.86802-117.5079432°78km/h10164m3.6m/s-41.1°C0%0hPa0V00:00:0000:00:0000:00:00
WB7NNF2026-09-04 18:01:0947.86406-117.5103822°78km/h10069m4.8m/s-40.7°C0%0hPa0V00:00:0000:00:0000:00:00
WB7NNF2026-09-04 18:00:4847.86006-117.5124215°84km/h9979m5.2m/s-40.2°C0%0hPa0V00:00:0000:00:0000:00:00
WB7NNF2026-09-04 18:00:2847.85556-117.5142713°88km/h9888m4.1m/s-40.3°C0%0hPa0V00:00:0000:00:0000:00:00
WB7NNF2026-09-04 18:00:0847.85123-117.5155912°77km/h9803m4.1m/s-40.4°C0%0hPa0V00:00:0000:00:0000:00:00
WB7NNF2026-09-04 17:59:4747.84675-117.5171017°89km/h9713m5.4m/s-40.6°C0%0hPa0V00:00:0000:00:0000:00:00
WB7NNF2026-09-04 17:59:2647.84261-117.5189723°95km/h9623m4.7m/s-40.3°C0%0hPa0V00:00:0000:00:0000:00:00
WB7NNF2026-09-04 17:58:4547.83423-117.5246423°86km/h9438m4.7m/s-40.1°C0%0hPa0V00:00:0000:00:0000:00:00
WB7NNF2026-09-04 17:58:2547.82980-117.5278525°97km/h9347m6.0m/s-39.7°C0%0hPa0V00:00:0000:00:0000:00:00
WB7NNF2026-09-04 17:58:0447.82564-117.5308727°102km/h9262m3.3m/s-39.3°C0%0hPa0V00:00:0000:00:0000:00:00
WB7NNF2026-09-04 17:57:4447.82114-117.5339325°93km/h9176m4.5m/s-38.8°C0%0hPa0V00:00:0000:00:0000:00:00
WB7NNF2026-09-04 17:57:2347.81686-117.5366133°86km/h9095m3.3m/s-39.1°C0%0hPa0V00:00:0000:00:0000:00:00
WB7NNF2026-09-04 17:57:0347.81230-117.5396225°93km/h8998m3.0m/s-39.0°C0%0hPa0V00:00:0000:00:0000:00:00
WB7NNF2026-09-04 17:56:4247.80796-117.5431833°95km/h8911m4.8m/s-38.6°C0%0hPa0V00:00:0000:00:0000:00:00
WB7NNF2026-09-04 17:56:2247.80334-117.5466025°93km/h8827m3.2m/s-38.2°C0%0hPa0V00:00:0000:00:0000:00:00
WB7NNF2026-09-04 17:56:0147.79917-117.5499028°99km/h8738m5.2m/s-38.0°C0%0hPa0V00:00:0000:00:0000:00:00
WB7NNF2026-09-04 17:55:4147.79495-117.5535030°91km/h8656m3.8m/s-38.3°C0%0hPa0V00:00:0000:00:0000:00:00
WB7NNF2026-09-04 17:55:2047.79099-117.5568231°91km/h8567m3.6m/s-38.3°C0%0hPa0V00:00:0000:00:0000:00:00
WB7NNF2026-09-04 17:54:5847.78686-117.5600525°88km/h8478m5.3m/s-38.1°C0%0hPa0V00:00:0000:00:0000:00:00
WB7NNF2026-09-04 17:54:3747.78312-117.5628931°89km/h8393m4.4m/s-38.4°C0%0hPa0V00:00:0000:00:0000:00:00
WB7NNF2026-09-04 17:54:1747.77925-117.5660931°93km/h8312m4.6m/s-38.2°C0%0hPa0V00:00:0000:00:0000:00:00
WB7NNF2026-09-04 17:53:5647.77560-117.5692834°89km/h8221m7.5m/s-38.1°C0%0hPa0V00:00:0000:00:0000:00:00
WB7NNF2026-09-04 17:53:3647.77182-117.5724226°99km/h8096m5.6m/s-37.1°C0%0hPa0V00:00:0000:00:0000:00:00
WB7NNF2026-09-04 17:53:1547.76842-117.5750624°66km/h7998m3.2m/s-37.8°C0%0hPa0V00:00:0000:00:0000:00:00
WB7NNF2026-09-04 17:52:5547.76527-117.5773231°62km/h7908m3.3m/s-37.7°C0%0hPa0V00:00:0000:00:0000:00:00
WB7NNF2026-09-04 17:52:3447.76254-117.5793232°64km/h7821m4.8m/s-37.8°C0%0hPa0V00:00:0000:00:0000:00:00
WB7NNF2026-09-04 17:52:1447.75949-117.5815322°55km/h7731m8.4m/s-37.6°C0%0hPa0V00:00:0000:00:0000:00:00
WB7NNF2026-09-04 17:51:5347.75680-117.5840138°53km/h7617m3.4m/s-37.0°C0%0hPa0V00:00:0000:00:0000:00:00
WB7NNF2026-09-04 17:51:3347.75423-117.5863433°37km/h7533m4.9m/s-37.0°C0%0hPa0V00:00:0000:00:0000:00:00
WB7NNF2026-09-04 17:51:1247.75148-117.5881941°57km/h7431m5.3m/s-36.3°C0%0hPa0V00:00:0000:00:0000:00:00
WB7NNF2026-09-04 17:50:5147.74948-117.5898444°20km/h7310m5.6m/s-36.0°C0%0hPa0V00:00:0000:00:0000:00:00
WB7NNF2026-09-04 17:50:3147.74797-117.5909737km/h7208m6.0m/s-35.6°C0%0hPa0V00:00:0000:00:0000:00:00
WB7NNF2026-09-04 17:50:1047.74636-117.5920826°24km/h7101m7.2m/s-34.7°C0%0hPa0V00:00:0000:00:0000:00:00
WB7NNF2026-09-04 17:49:5047.74478-117.59280356°46km/h6982m4.2m/s-33.7°C0%0hPa0V00:00:0000:00:0000:00:00
WB7NNF2026-09-04 17:49:2947.74344-117.5937039°22km/h6867m3.1m/s-32.6°C0%0hPa0V00:00:0000:00:0000:00:00
WB7NNF2026-09-04 17:49:0747.74204-117.59395343°24km/h6760m3.6m/s-31.7°C0%0hPa0V00:00:0000:00:0000:00:00
WB7NNF2026-09-04 17:48:4647.74060-117.5940214°22km/h6675m3.5m/s-30.9°C0%0hPa0V00:00:0000:00:0000:00:00
WB7NNF2026-09-04 17:48:2647.73919-117.5940731km/h6584m5.7m/s-30.2°C0%0hPa0V00:00:0000:00:0000:00:00
WB7NNF2026-09-04 17:48:0547.73777-117.5943835km/h6493m5.4m/s-29.3°C0%0hPa0V00:00:0000:00:0000:00:00
WB7NNF2026-09-04 17:47:4547.73615-117.5947835°16km/h6400m2.5m/s-28.5°C0%0hPa0V00:00:0000:00:0000:00:00
WB7NNF2026-09-04 17:47:2447.73486-117.59553344°18km/h6286m4.1m/s-27.6°C0%0hPa0V00:00:0000:00:0000:00:00
WB7NNF2026-09-04 17:46:4347.73174-117.5965638km/h6096m4.2m/s-25.9°C0%0hPa0V00:00:0000:00:0000:00:00
WB7NNF2026-09-04 17:46:2147.72974-117.5971840km/h6011m3.4m/s-25.1°C0%0hPa0V00:00:0000:00:0000:00:00
WB7NNF2026-09-04 17:46:0047.72783-117.59788349°44km/h5921m5.2m/s-24.7°C0%0hPa0V00:00:0000:00:0000:00:00
WB7NNF2026-09-04 17:45:3847.72572-117.5983720°53km/h5807m5.1m/s-23.7°C0%0hPa0V00:00:0000:00:0000:00:00
WB7NNF2026-09-04 17:45:1747.72348-117.59907356°44km/h5706m4.1m/s-22.8°C0%0hPa0V00:00:0000:00:0000:00:00


GPX KML Map

© wettersonde.net (DO2JMG) - 2026  -  -